Commit Graph

  • dfb9f92eb1 cleanup of source files Joel Bodenmann 2012-11-21 11:06:04 +0100
  • 795947a251 window example code Joel Bodenmann 2012-11-21 10:25:13 +0100
  • e0052718e3 typo Joel Bodenmann 2012-11-21 10:22:00 +0100
  • 1b30c77ab3 in gwin.c GDISP_SET_CLIP -> GDISP_NEED_CLIP Joel Bodenmann 2012-11-21 10:21:43 +0100
  • ffde888bc0 SSD1289 fix Joel Bodenmann 2012-11-21 10:20:28 +0100
  • c0cf584c85 console example doc Joel Bodenmann 2012-11-21 09:54:23 +0100
  • 1dd5de6e81 added console demo Joel Bodenmann 2012-11-20 23:37:50 +0100
  • b77d45350f SSD1289 fix Joel Bodenmann 2012-11-20 23:30:27 +0100
  • 92ed50dbf0 gwin doxygen Joel Bodenmann 2012-11-20 23:12:09 +0100
  • a734b10c41 typo fix: aquire_bus -> acquire_bus Joel Bodenmann 2012-11-20 18:56:26 +0100
  • 43d45dca63 gtimer demo Joel Bodenmann 2012-11-20 18:37:49 +0100
  • 802e967a7a removed tools folder Joel Bodenmann 2012-11-20 18:28:53 +0100
  • b0fbfdebba gtimer doxygen fix Joel Bodenmann 2012-11-20 12:17:59 +0100
  • 9f2a7c36d9 replaced get_bus by aquire_bus Joel Bodenmann 2012-11-19 21:55:08 +0100
  • cafb454745 GEVENT doxygen Joel Bodenmann 2012-11-19 21:43:22 +0100
  • 19d45eaeda GTimer doxygen bugfix Joel Bodenmann 2012-11-19 20:39:20 +0100
  • 93fdd5dcdb doxygen of gtimer Joel Bodenmann 2012-11-19 20:26:19 +0100
  • 8515ed53f5 more SSD1289 and touchscreen workaround Joel Bodenmann 2012-11-17 14:05:23 +0100
  • 04cb37f834 SSD1289 fix Joel Bodenmann 2012-11-17 13:52:33 +0100
  • 4119264fd6 SSD1289 fix Joel Bodenmann 2012-11-17 13:43:23 +0100
  • 2c337b8dc8 Merge pull request #21 from inmarket/master Tectu 2012-11-17 02:17:50 -0800
  • d1836d49fe Fix compiler warnings Andrew Hannam 2012-11-17 18:24:24 +1000
  • bbb2d434c4 gdisp Nokia and SSD1289 updates Andrew Hannam 2012-11-17 18:11:05 +1000
  • 59c13aa33b Change dynamic memory allocator in GWIN Andrew Hannam 2012-11-17 18:09:11 +1000
  • 1ea82a4d37 Merge pull request #20 from inmarket/master Tectu 2012-11-16 10:08:48 -0800
  • a762a629aa GEVENT, GTIMER & GINPUT subsystems Andrew Hannam 2012-11-17 01:42:12 +1000
  • 633d64b393 Merge pull request #7 from Tectu/master Andrew Hannam 2012-11-16 07:29:55 -0800
  • b876f0fd52 removed obselete GDISP_USE_SPI macro in olimex SAM7EX256 board file for Nokia6610 driver Joel Bodenmann 2012-11-16 09:09:50 +0100
  • 4ad0935c6f Merge pull request #19 from inmarket/master Tectu 2012-11-14 22:08:03 -0800
  • e34ebdcae5 Updates to gdisp Nokia driver Andrew Hannam 2012-11-15 15:31:22 +1000
  • f6455189f8 Merge pull request #6 from Tectu/master Andrew Hannam 2012-11-14 21:23:37 -0800
  • 3cf6d6905f removed the check for GDISP_USE_XXX since new drivers dont use this anymore Joel Bodenmann 2012-11-14 21:25:48 +0100
  • ce4d7cf933 Merge pull request #18 from inmarket/master Tectu 2012-11-14 09:12:09 -0800
  • 4d521cff13 Gdisp lld driver corrections Andrew Hannam 2012-11-15 02:55:21 +1000
  • 00f95af7f8 Merge pull request #5 from Tectu/master Andrew Hannam 2012-11-14 08:41:07 -0800
  • 903adb1c24 ILI9320 update Joel Bodenmann 2012-11-13 23:59:45 +0100
  • a95c4933c4 Backlight fix Joel Bodenmann 2012-11-13 23:54:50 +0100
  • 81f6af7e45 backlight and contrast value changed to uint8_t Joel Bodenmann 2012-11-13 23:48:21 +0100
  • 6d18ad18c3 typo fix Joel Bodenmann 2012-11-13 23:47:48 +0100
  • 4467b814f2 implemented contrast and backlight functions for GDISP. Implemented those into ILI9320 Joel Bodenmann 2012-11-13 23:31:21 +0100
  • 2a01ab6762 typo Joel Bodenmann 2012-11-13 12:37:25 +0100
  • 93901d8f17 ILI9320 update Joel Bodenmann 2012-11-12 23:56:09 +0100
  • f66e79b648 new ILI9320 driver - please use as template Joel Bodenmann 2012-11-12 23:51:20 +0100
  • 0a8a570391 Merge pull request #17 from inmarket/master Tectu 2012-11-12 02:13:49 -0800
  • 67ae847970 Win32 orientation & gwin console line clear fixes Andrew Hannam 2012-11-12 18:49:47 +1000
  • 1c5ca344e8 Mandlebrot - remove hardware specifics Andrew Hannam 2012-11-12 17:19:09 +1000
  • 9566e80854 Remove RGB565CONVERT() Andrew Hannam 2012-11-12 17:10:30 +1000
  • 014330d3a0 gdisp Win32 Orientation support. Revert Macro Andrew Hannam 2012-11-12 17:00:26 +1000
  • 27f1350081 Merge pull request #4 from Tectu/master Andrew Hannam 2012-11-11 22:36:48 -0800
  • ed73471f99 removed false ILI9320 code Joel Bodenmann 2012-11-12 02:51:06 +0100
  • 7ccd3da85f implemented power modes for ILI9320 Joel Bodenmann 2012-11-12 02:35:06 +0100
  • fafe23f2e4 small fix Joel Bodenmann 2012-11-12 00:13:39 +0100
  • 5683a9058e added MCU driver dummy - not implemented yet Joel Bodenmann 2012-11-12 00:07:35 +0100
  • 0e6ddaf7ff added ILI3920 orientation dummies Joel Bodenmann 2012-11-11 18:56:30 +0100
  • eb6e5760fc added ILI9320 driver - not finished yet, but working Joel Bodenmann 2012-11-11 18:20:23 +0100
  • c0de701066 GDISP_NEED_TEXT getting set automatically if GWIN_NEED_CONSOLE or GWIN_NEED_BUTTON set to TRUE Joel Bodenmann 2012-11-11 16:19:50 +0100
  • 112781baee set GWIN_NEED_CONSOLE default value to FALSE Joel Bodenmann 2012-11-11 16:02:44 +0100
  • 33d7fe68b9 Merge pull request #3 from Tectu/master Andrew Hannam 2012-11-11 05:50:38 -0800
  • e8020a88c9 fixed touchscreen output and removed console code Joel Bodenmann 2012-11-11 15:16:12 +0100
  • e8ee122321 Revert "removed unused RGB565CONVERT. Please use RGB2COLOR instead" Joel Bodenmann 2012-11-11 13:35:24 +0100
  • 933ea0a866 Merge pull request #16 from inmarket/master Tectu 2012-11-11 02:56:55 -0800
  • 8b51bcf46f Touch Fixes. Deprecate Console Andrew Hannam 2012-11-11 19:03:30 +1000
  • e28a4dbd0e Merge pull request #2 from Tectu/master Andrew Hannam 2012-11-11 00:00:23 -0800
  • 44bb28ed92 small doxygen fix Joel Bodenmann 2012-11-11 05:31:48 +0100
  • f05315e0c0 small doxygen fix Joel Bodenmann 2012-11-11 05:11:00 +0100
  • b6c5a0882e GWIN doxygen fix Joel Bodenmann 2012-11-11 04:41:59 +0100
  • 43a1300f13 docs Joel Bodenmann 2012-11-10 18:42:32 +0100
  • ccf7fc3068 cleanup Joel Bodenmann 2012-11-10 18:39:00 +0100
  • 800869979f Merge pull request #15 from mobyfab/master Tectu 2012-11-10 08:13:05 -0800
  • 37b5067de8 small doxygen update Joel Bodenmann 2012-11-10 17:37:44 +0100
  • 1ba2539b6c Adding TOUCHSCREEN_XY_INVERTED define to the calibration function. mobyfab 2012-11-10 17:10:19 +0100
  • 5f90362261 touchscreen fixes Joel Bodenmann 2012-11-10 17:04:20 +0100
  • 8231e9738c removed unused RGB565CONVERT. Please use RGB2COLOR instead Joel Bodenmann 2012-11-10 16:49:03 +0100
  • 5a5db64288 renamed tsIRQ() into tsPressed() Joel Bodenmann 2012-11-10 16:46:02 +0100
  • cc5ae04b7b Merge pull request #14 from inmarket/master Tectu 2012-11-10 03:19:45 -0800
  • 77e1371b86 Added touch to gdisp Win32 driver Andrew Hannam 2012-11-10 17:45:53 +1000
  • c069817f0c Removed some hardware dependancies in HL drivers Andrew Hannam 2012-11-10 15:11:39 +1000
  • 0eeb2a2b8f Merge pull request #1 from Tectu/master Andrew Hannam 2012-11-09 18:47:05 -0800
  • affd9792ff added touchscreen files Joel Bodenmann 2012-11-10 00:13:42 +0100
  • 8f31c5e632 untracked template files since out of date Joel Bodenmann 2012-11-10 00:07:37 +0100
  • 87b6d98055 renamed touchpad into touchscreen Joel Bodenmann 2012-11-10 00:05:01 +0100
  • 995c9835c2 small macro update Joel Bodenmann 2012-11-09 23:10:38 +0100
  • 61d2238b25 small cleanup Joel Bodenmann 2012-11-09 01:04:27 +0100
  • 3dd0b1a5af Merge pull request #13 from abhishek-kakkar/master Tectu 2012-11-08 14:35:30 -0800
  • f75a2ae91e Touchpad Updates - 3 point calibration support + Touchpad reads now return coord_t instead of uint16_t tpTransform function does the calibration transformation instead of the original functions Kumar Abhishek 2012-11-09 00:41:22 +0530
  • 6105b88f89 Touchpad API update to return coordinates as coord_t instead of uint16_t Kumar Abhishek 2012-11-09 00:35:08 +0530
  • 9592a87826 small cosmetic fix Joel Bodenmann 2012-11-07 13:45:00 +0100
  • 0458a02b76 a bit more doxygen Joel Bodenmann 2012-11-07 10:48:28 +0100
  • 89baca2ef6 more doxygen Joel Bodenmann 2012-11-07 10:32:07 +0100
  • 17857d6e97 big doxygen update - now it works as it should Joel Bodenmann 2012-11-07 01:47:53 +0100
  • 1fd69f3144 very small @file path fix Joel Bodenmann 2012-11-07 01:35:22 +0100
  • a178db6f13 Revert "doxygen tweaks - not complete yet" Joel Bodenmann 2012-11-07 01:34:39 +0100
  • b86c313aa2 doxygen tweaks - not complete yet Joel Bodenmann 2012-11-06 23:55:45 +0100
  • a39a8427d9 removed doxygen of static internal functions Joel Bodenmann 2012-11-06 23:26:33 +0100
  • 8c1ffacd2e small doxygen fix Joel Bodenmann 2012-11-05 20:14:03 +0100
  • f8976f8428 release v1.4 v1.4 Joel Bodenmann 2012-11-03 21:24:21 +0100
  • b0acbd1166 added .gitingore Joel Bodenmann 2012-11-03 21:03:55 +0100
  • fa5ea79150 cleanup of doxygen Joel Bodenmann 2012-11-03 21:03:29 +0100
  • 66922e0fcb yes sir, please give us even more doxygen Joel Bodenmann 2012-11-03 15:48:26 +0100
  • bca9c1442e docs Joel Bodenmann 2012-11-03 03:04:09 +0100